Home   Weather   Strasbourg   Past weeks
Flag for France

Past Weather in Strasbourg, Grand-Est, France — Yesterday and Last 2 Weeks

Now
73 °F

Sunny.


Feels Like: 76 °F
Forecast: 82 / 66 °F
Wind: 9 mph from South

Location: Strasbourg Airport

Current Time: Jul 20, 2019 at 10:14:41 am

Latest Report: Jul 20, 2019 at 9:30 am


Visibility: 10 mi

Pressure: 29.95 "Hg

Humidity: 65%

Dew Point: 61 °F

Location of StrasbourgLocation

Past Weather in Strasbourg — Graph

°F

Strasbourg Temperature Yesterday

Maximum temperature yesterday: 81 °F (at 12:00 pm)
Minimum temperature yesterday: 63 °F (at 3:30 am)
Average temperature yesterday: 73 °F

High & Low Weather Summary for the Past Weeks

 TemperatureHumidityPressure
High88 °F (Jul 5, 4:30 pm)94% (Jul 12, 5:00 am)30.12 "Hg (Jul 12, 5:00 am)
Low48 °F (Jul 10, 4:30 am)24% (Jul 10, 6:30 pm)29.80 "Hg (Jul 6, 6:00 pm)
Average68 °F61%29.99 "Hg
* Reported Jul 5 9:00 am — Jul 20 9:00 am, Strasbourg. Weather by CustomWeather, © 2019

Note: Actual official high and low records may vary slightly from our data, if they occured in-between our weather recording intervals... More about our weather records

Advertising

Strasbourg Weather History for the Previous 24 Hours

Scroll right to see more
 ConditionsComfort  
Time TempWeatherWind HumidityBarometerVisibility
9:00 am
Sat, Jul 20
72 °FPassing clouds.6 mph69%29.95 "HgN/A
8:30 am68 °FPassing clouds.5 mph73%29.95 "HgN/A
8:00 am66 °FSunny.3 mph78%29.95 "Hg10 mi
7:30 am64 °FSunny.2 mph83%29.95 "Hg10 mi
7:00 am61 °FSunny.3 mph94%29.95 "Hg10 mi
6:30 am59 °FSunny.3 mph94%29.95 "Hg10 mi
6:00 am57 °FSunny.No wind94%29.95 "Hg10 mi
5:30 am59 °FClear.No wind94%29.95 "Hg10 mi
5:00 am59 °FClear.No wind88%29.95 "Hg10 mi
4:30 am59 °FClear.2 mph88%29.95 "Hg10 mi
4:00 am59 °FClear.3 mph94%29.95 "Hg10 mi
3:30 am59 °FClear.No wind94%29.95 "Hg10 mi
3:00 am61 °FClear.No wind88%29.95 "Hg10 mi
2:30 am63 °FClear.2 mph83%29.95 "Hg10 mi
2:00 am63 °FClear.3 mph88%29.98 "Hg10 mi
1:30 am63 °FClear.2 mph88%29.98 "Hg10 mi
1:00 am64 °FClear.3 mph83%29.98 "Hg10 mi
12:30 am64 °FClear.3 mph83%29.98 "Hg10 mi
12:00 am66 °FClear.3 mph78%29.98 "Hg10 mi
11:30 pm
Fri, Jul 19
68 °FClear.3 mph73%29.98 "Hg10 mi
11:00 pm70 °FClear.2 mph69%29.98 "Hg10 mi
10:30 pm72 °FClear.No wind65%29.98 "Hg10 mi
10:00 pm72 °FPassing clouds.3 mph65%29.98 "HgN/A
9:30 pm73 °FClear.3 mph61%29.98 "Hg10 mi
9:00 pm75 °FPassing clouds.6 mph57%29.95 "HgN/A
8:30 pm77 °FSunny.6 mph54%29.95 "Hg10 mi
8:00 pm77 °FPassing clouds.7 mph54%29.95 "HgN/A
7:30 pm79 °FSunny.7 mph51%29.98 "Hg10 mi
7:00 pm81 °FPassing clouds.8 mph48%29.98 "HgN/A
6:30 pm81 °FPassing clouds.7 mph48%29.98 "HgN/A
6:00 pm81 °FPassing clouds.7 mph48%29.98 "HgN/A
5:30 pm81 °FPassing clouds.6 mph48%29.98 "HgN/A
5:00 pm81 °FSunny.6 mph45%29.98 "Hg10 mi
4:30 pm79 °FPassing clouds.9 mph51%29.98 "HgN/A
4:00 pm81 °FPassing clouds.10 mph48%29.98 "HgN/A
3:30 pm81 °FPassing clouds.8 mph48%30.01 "HgN/A
3:00 pm79 °FPassing clouds.10 mph48%30.01 "HgN/A
2:30 pm81 °FMore clouds than sun.3 mph42%29.98 "HgN/A
2:00 pm81 °FPartly sunny.8 mph45%30.01 "HgN/A
1:30 pm79 °FPartly sunny.8 mph48%30.01 "HgN/A
1:00 pm79 °FBroken clouds.8 mph48%30.01 "HgN/A
12:30 pm81 °FBroken clouds.8 mph45%30.01 "HgN/A
12:00 pm81 °FMostly cloudy.10 mph42%30.01 "HgN/A
11:30 am79 °FBroken clouds.6 mph45%30.01 "HgN/A
11:00 am79 °FBroken clouds.3 mph51%30.01 "HgN/A
10:30 am75 °FSunny.3 mph57%30.01 "Hg10 mi
10:00 am73 °FSunny.2 mph57%30.01 "Hg10 mi
Weather by CustomWeather, © 2019

See weather overview